Regional Weather Roundup
Issued by NWS Upton, NY

Current Version | Previous Version | Graphics & Text | Print | Product List | Glossary Off
Versions: 1 2 3 4 5 6 7 8 9 10 11 12 13 14 15 16 17 18 19 20 21 22 23 24 25 26 27 28 29 30 31 32 33 34 35 36 37 38 39 40 41 42 43 44 45 46 47 48 49 50

000
ASUS41 KOKX 210108
RWROKX

REGIONAL WEATHER ROUNDUP
NATIONAL WEATHER SERVICE NEW YORK NY
900 PM EDT SUN AUG 20 2017

NOTE: "FAIR" INDICATES FEW OR NO CLOUDS BELOW 12,000 FEET WITH NO
SIGNIFICANT WEATHER AND/OR OBSTRUCTIONS TO VISIBILITY.

NYZ071-072-176-178-NJZ106-104-210200-
NEW YORK CITY METRO AREA

CITY           SKY/WX    TMP DP  RH WIND       PRES   REMARKS
Central Park   CLEAR     77  58  51 CALM      30.14R
Bronx Bot Gard   N/A     77  57  50 CALM      30.11R
LaGuardia APRT PTCLDY    80  61  52 NW8       30.10R
Kennedy INTL   PTCLDY    80  58  46 NW13      30.12R
Breezy Point     N/A     75 N/A N/A W5          N/A
Newark/Liberty PTCLDY    79  58  48 W7        30.11R
Teterboro      CLEAR     77  59  53 W3        30.10R
$$

NYZ177-179-078>081-210200-
LONG ISLAND NEW YORK

CITY           SKY/WX    TMP DP  RH WIND       PRES   REMARKS
Jones Beach      N/A     77 N/A N/A N3          N/A
Matinecock PT    N/A     75 N/A N/A SW3         N/A
Farmingdale    CLEAR     76  59  55 NW3       30.11R
MacArthur/ISP  CLEAR     73  61  65 SW6       30.10R
Shirley        CLEAR     70  62  76 CALM      30.11R
Mt Sinai Harb    N/A    N/A N/A N/A CALM        N/A
Westhampton    CLEAR     66  58  75 CALM      30.12R
East Hampton   FAIR      65  62  89 CALM      30.09R
Montauk          N/A     75  63  66 NW5       30.10R
$$

NYZ052-065-067-210200-
HUDSON VALLEY

CITY           SKY/WX    TMP DP  RH WIND       PRES   REMARKS
White Plains   PTCLDY    70  61  73 W3        30.12R
Larchmont Harb   N/A     77 N/A N/A W5          N/A
Croton On Huds   N/A     75 N/A N/A CALM        N/A
Newburgh       CLEAR     72  64  78 CALM      30.13R
Montgomery     CLEAR     68  63  84 CALM      30.12R
Poughkeepsie   CLEAR     68  63  84 CALM      30.10R
Albany         PTCLDY    71  58  63 CALM      30.09R
$$

NJZ001-105-106-008-010-013-015-019>022-104-210200-
NEW JERSEY

CITY           SKY/WX    TMP DP  RH WIND       PRES   REMARKS
Newark/Liberty PTCLDY    79  58  48 W7        30.11R
Teterboro      CLEAR     77  59  53 W3        30.10R
Caldwell       CLEAR     72  64  76 CALM      30.13R
Somerville     CLEAR     70  67  90 CALM      30.11R
Linden         FAIR      78  58  50 CALM      30.11R
Perth Amboy      N/A     77 N/A N/A NW3         N/A
Sussex         CLEAR     67  65  93 CALM      30.14R
Andover          N/A     66  64  93 CALM      30.15R
Trenton        CLEAR     77  62  59 W3        30.13R
Millville      CLEAR     71  69  93 CALM      30.14R
Atlantic City  CLEAR     74  66  76 CALM      30.14R
Wrightstown    CLEAR     69  64  83 CALM      30.11R
Toms River     CLEAR     68  64  87 CALM      30.14R
Belmar         CLEAR     73  64  73 SW6       30.14R
$$

PAZ047>061-062-071-210200-
EASTERN PENNSYLVANIA

CITY           SKY/WX    TMP DP  RH WIND       PRES   REMARKS
Philadelphia   PTCLDY    81  61  50 W7        30.14R
Allentown      CLEAR     73  62  68 S3        30.14R
Scranton       PTCLDY    73  63  70 CALM      30.15R
$$

CTZ002-004>006-009-010-012-RIZ004-006-007-MAZ004-011-015-210200-
SOUTHERN NEW ENGLAND
 IN CT

CITY           SKY/WX    TMP DP  RH WIND       PRES   REMARKS
Bradley INTL   PTCLDY    69  61  75 W6        30.09R
Hartford       CLEAR     76  57  51 CALM      30.09R
Danbury        CLEAR     67  63  87 SW5       30.13R
Wtrbury/Oxford NOT AVBL
Norwalk Harbor   N/A     75 N/A N/A MISG        N/A
Bridgeport     CLEAR     76  60  57 CALM      30.10R
Meriden        CLEAR     68  60  75 CALM      30.10R
New Haven      PTCLDY    75  61  61 NW3       30.10R
Chester        FAIR      70  59  68 CALM      30.11R
Groton         CLEAR     73  60  63 W5        30.08R
Wilimantic     CLEAR     69  63  81 CALM      30.10R

 IN RI

CITY           SKY/WX    TMP DP  RH WIND       PRES   REMARKS
Providence     PTCLDY    74  60  61 W5        30.08R
Block Island   CLEAR     72  62  71 W8        30.09R
Westerly       CLEAR     73  61  65 CALM      30.09R
 IN MA

CITY           SKY/WX    TMP DP  RH WIND       PRES   REMARKS
Boston         CLEAR     77  55  46 W7        30.06R
Worcester      CLEAR     70  54  56 W9        30.11R
Westfield      CLEAR     66  60  81 CALM      30.09R
Provincetown   CLEAR     70  63  78 NW5       30.06R
Nantucket      CLEAR     69  66  90 W5        30.06R
$$

ANZ330-335-338-340-345-350-353-355-210200-
COASTAL MARINE OBSERVATIONS


STATION/POSITION TIME  SKY/WX   TEMP    WIND        PRES    VSBY  WAVE
                                AIR SEA DIR/SP/G                  HT/PER
                 (UTC)          (F)     (DEG/KT/KT) (MB)    (MI)  (FT/S)
NY HARB ENTRANCE 2350            78 76  280/  8/  8 1018.4          2/ 8
GREAT SOUTH BAY  0030            79 79  280/  6/  6   N/A
23 SSW MONTAUK P 2350            74 72              1018.5          2/ 6
15 E BARNEGAT LI 0030               78                N/A           2/ 9
HUDSON CANYON    2350            75 74  260/ 10/ 12 1018.7          2/ 5
KINGS POINT      0030            78 75  340/  6/  8 1019.0
EXECUTION ROCKS  NOT AVBL
WESTERN LI SOUND NOT AVBL
CENTRAL LI SOUND NOT AVBL
EASTERN LI SOUND NOT AVBL
ROBBINS REEF     0024                   300/  7/  9 1019.7
$$


>>>>>>>>>>>>>>>>>>>>>>>>>>>> KEY <<<<<<<<<<<<<<<<<<<<<<<<<<<
>                                                          <
>     SKY/WX - Sky Condition/Present Weather               <
>     TMP    - Temperature in Fahrenheit                   <
>     DP     - Dew Point in Fahrenheit                     <
>     RH     - Relative Humidity in Percent                <
>     WIND   - Direction (from) and Speed in MPH           <
>     PRES   - Mean Sea Level Pressure (inches of Hg)      <
>     WCI    - Wind Chill Index                            <
>     VSB    - VISIBILITY IN MILES                         <
>     HX     - HEAT INDEX                                  <
>     TC     - TEMPERATURE IN CELSIUS                      <
>     VRB    - VARIABLE WIND DIRECTION                     <
>                                                          <
>>>>>>>>>>>>>>>>>>>>>>>>>>>> KEY <<<<<<<<<<<<<<<<<<<<<<<<<<<



USA.gov is the U.S. government's official web portal to all federal, state and local government web resources and services.